GFSWCAN_prec_precacc24_072.txt.gz
Total_Precipitation_Accumulation
0.29 0.28 0.24 0.20 0.14 0.16 0.23 0.25 0.30 0.38 0.43 0.32 0.25 0.31 0.40 0.49 0.63 0.71 0.70 0.32 0.90 1.02 0.31 0.20 0.20 0.16 0.03 0.03 0.05 0.02 0.08 0.08 0.17 0.10 0.04 0.01 0.00 0.00 0.01 0.01 0.01 0.06 0.18 0.26 0.31 0.27 0.10 0.02 0.06 0.08 0.03 0.01 0.00 0.00
0.38 0.26 0.19 0.17 0.18 0.22 0.25 0.26 0.32 0.40 0.43 0.35 0.26 0.27 0.36 0.55 0.70 0.72 0.79 0.28 0.51 0.89 0.53 0.35 0.22 0.23 0.09 0.03 0.03 0.01 0.03 0.02 0.05 0.10 0.04 0.01 0.01 0.01 0.01 0.01 0.00 0.02 0.02 0.05 0.07 0.05 0.01 0.03 0.08 0.09 0.08 0.06 0.04 0.01
0.29 0.18 0.15 0.16 0.18 0.20 0.20 0.23 0.33 0.42 0.43 0.39 0.37 0.35 0.42 0.55 0.62 0.99 0.57 0.25 0.83 1.32 0.56 0.26 0.22 0.15 0.18 0.06 0.05 0.17 0.04 0.02 0.03 0.03 0.08 0.05 0.02 0.01 0.01 0.00 0.00 0.01 0.00 0.01 0.01 0.01 0.01 0.01 0.02 0.01 0.00 0.01 0.01 0.01
0.15 0.14 0.16 0.21 0.23 0.26 0.27 0.29 0.28 0.40 0.46 0.45 0.41 0.47 0.48 0.53 0.62 0.91 0.60 0.20 0.57 0.84 0.50 0.23 0.15 0.14 0.18 0.14 0.04 0.08 0.08 0.06 0.11 0.19 0.12 0.18 0.07 0.01 0.00 0.01 0.00 0.00 0.02 0.03 0.02 0.00 0.01 0.01 0.02 0.06 0.04 0.01 0.00 0.01
0.21 0.15 0.15 0.21 0.27 0.27 0.26 0.25 0.28 0.35 0.40 0.44 0.40 0.43 0.62 0.65 0.60 0.72 0.45 0.23 0.33 0.67 0.38 0.22 0.18 0.16 0.14 0.19 0.10 0.08 0.09 0.12 0.18 0.40 0.38 0.11 0.05 0.04 0.03 0.04 0.01 0.01 0.02 0.05 0.05 0.03 0.03 0.01 0.01 0.01 0.00 0.01 0.01 0.01
0.22 0.16 0.12 0.13 0.13 0.12 0.14 0.17 0.21 0.26 0.28 0.33 0.32 0.51 0.69 0.66 0.76 0.89 1.12 0.71 0.42 0.59 0.70 0.33 0.21 0.11 0.18 0.23 0.23 0.12 0.09 0.12 0.20 0.30 0.39 0.27 0.11 0.17 0.10 0.02 0.01 0.02 0.05 0.03 0.02 0.03 0.03 0.03 0.03 0.01 0.01 0.01 0.00 0.00
0.13 0.12 0.11 0.10 0.09 0.09 0.10 0.11 0.14 0.20 0.26 0.33 0.41 0.50 0.67 0.69 0.65 0.45 0.51 0.29 0.24 0.53 0.83 0.59 0.26 0.19 0.15 0.28 0.33 0.24 0.15 0.16 0.23 0.32 0.29 0.16 0.11 0.29 0.38 0.23 0.07 0.03 0.04 0.05 0.04 0.03 0.03 0.02 0.02 0.01 0.01 0.01 0.01 0.01
0.11 0.14 0.11 0.11 0.12 0.12 0.13 0.15 0.18 0.26 0.35 0.45 0.56 0.74 0.88 0.72 0.43 0.21 0.06 0.03 0.11 0.36 0.49 0.68 0.62 0.40 0.35 0.32 0.30 0.23 0.15 0.18 0.26 0.23 0.22 0.29 0.20 0.30 0.36 0.13 0.04 0.03 0.03 0.04 0.05 0.06 0.04 0.03 0.03 0.03 0.02 0.03 0.03 0.03
0.07 0.10 0.11 0.10 0.13 0.15 0.14 0.15 0.20 0.29 0.38 0.46 0.62 0.77 0.92 0.63 0.40 0.16 0.10 0.13 0.14 0.33 0.29 0.35 0.64 0.64 0.61 0.37 0.39 0.35 0.28 0.26 0.20 0.20 0.16 0.35 0.37 0.44 0.21 0.05 0.02 0.00 0.01 0.00 0.01 0.03 0.04 0.05 0.04 0.02 0.02 0.02 0.01 0.01
0.09 0.08 0.12 0.16 0.18 0.22 0.26 0.26 0.26 0.29 0.33 0.36 0.42 0.59 0.95 0.47 0.16 0.20 0.47 0.48 0.35 0.26 0.18 0.23 0.35 0.72 0.98 0.65 0.38 0.60 0.61 0.29 0.14 0.08 0.24 0.25 0.49 0.34 0.10 0.04 0.01 0.00 0.00 0.00 0.00 0.00 0.01 0.02 0.02 0.01 0.01 0.01 0.01 0.01
0.08 0.07 0.10 0.15 0.18 0.22 0.25 0.27 0.24 0.19 0.15 0.16 0.27 0.56 0.45 0.26 0.28 0.46 0.51 0.34 0.20 0.07 0.05 0.07 0.14 0.56 0.71 0.75 0.32 0.32 0.42 0.43 0.30 0.20 0.21 0.28 0.27 0.21 0.16 0.10 0.03 0.01 0.01 0.01 0.01 0.00 0.00 0.00 0.01 0.01 0.00 0.00 0.00 0.00
0.07 0.04 0.03 0.03 0.04 0.05 0.06 0.06 0.07 0.08 0.10 0.17 0.20 0.20 0.26 0.32 0.33 0.27 0.24 0.18 0.09 0.13 0.11 0.07 0.08 0.25 0.44 0.71 0.55 0.38 0.63 0.51 0.28 0.29 0.40 0.45 0.27 0.08 0.05 0.05 0.05 0.04 0.03 0.02 0.02 0.03 0.03 0.04 0.05 0.05 0.05 0.05 0.05 0.06
0.04 0.04 0.02 0.03 0.04 0.05 0.07 0.14 0.16 0.20 0.36 0.30 0.19 0.10 0.22 0.18 0.27 0.25 0.17 0.14 0.17 0.36 0.11 0.15 0.09 0.22 0.42 0.67 0.84 0.57 0.79 0.99 0.60 0.51 0.50 0.35 0.21 0.12 0.15 0.19 0.22 0.21 0.17 0.13 0.09 0.07 0.06 0.05 0.05 0.06 0.08 0.13 0.16 0.22
0.00 0.01 0.03 0.05 0.07 0.11 0.15 0.15 0.20 0.41 0.29 0.27 0.26 0.29 0.49 0.31 0.41 0.33 0.25 0.23 0.21 0.16 0.15 0.47 0.24 0.35 0.49 0.72 0.88 0.71 0.78 0.81 0.92 0.56 0.43 0.35 0.39 0.37 0.32 0.30 0.29 0.36 0.38 0.37 0.38 0.35 0.35 0.34 0.40 0.46 0.53 0.63 0.61 0.77
0.01 0.02 0.04 0.06 0.08 0.09 0.09 0.09 0.19 0.27 0.32 0.38 0.47 0.43 0.41 0.58 0.48 0.42 0.40 0.33 0.29 0.24 0.29 0.49 0.50 0.51 0.57 0.71 0.64 0.50 0.46 0.37 0.32 0.34 0.32 0.38 0.41 0.37 0.39 0.43 0.46 0.50 0.52 0.52 0.54 0.54 0.62 0.63 0.59 0.72 0.82 0.80 0.67 0.67
0.07 0.09 0.14 0.10 0.07 0.06 0.10 0.19 0.27 0.35 0.40 0.34 0.38 0.50 0.46 0.50 0.43 0.40 0.36 0.32 0.33 0.32 0.42 0.54 0.55 0.40 0.35 0.32 0.25 0.21 0.17 0.18 0.27 0.39 0.37 0.38 0.39 0.43 0.49 0.53 0.60 0.61 0.56 0.51 0.50 0.46 0.46 0.47 0.44 0.49 0.53 0.51 0.51 0.41
0.17 0.12 0.15 0.13 0.15 0.19 0.25 0.24 0.25 0.22 0.18 0.23 0.38 0.45 0.46 0.41 0.42 0.42 0.38 0.36 0.35 0.32 0.35 0.32 0.27 0.27 0.20 0.11 0.20 0.22 0.29 0.37 0.40 0.50 0.58 0.54 0.55 0.62 0.62 0.63 0.66 0.59 0.50 0.46 0.42 0.40 0.45 0.46 0.31 0.19 0.28 0.41 0.30 0.28
0.24 0.18 0.20 0.19 0.20 0.18 0.17 0.15 0.07 0.06 0.15 0.31 0.35 0.44 0.35 0.38 0.39 0.37 0.36 0.32 0.27 0.19 0.16 0.19 0.12 0.07 0.11 0.16 0.25 0.33 0.33 0.36 0.41 0.45 0.49 0.56 0.56 0.57 0.59 0.60 0.61 0.54 0.46 0.43 0.37 0.37 0.38 0.32 0.25 0.31 0.28 0.25 0.16 0.16
0.53 0.33 0.31 0.34 0.24 0.13 0.07 0.05 0.00 0.07 0.23 0.27 0.31 0.27 0.23 0.27 0.27 0.24 0.18 0.15 0.12 0.08 0.08 0.09 0.11 0.15 0.22 0.28 0.34 0.34 0.37 0.37 0.40 0.43 0.44 0.47 0.50 0.52 0.54 0.51 0.44 0.40 0.31 0.32 0.27 0.26 0.27 0.24 0.24 0.21 0.17 0.12 0.12 0.12
0.41 0.31 0.30 0.16 0.03 0.01 0.00 0.01 0.00 0.04 0.15 0.15 0.11 0.05 0.06 0.10 0.08 0.05 0.03 0.03 0.04 0.05 0.09 0.15 0.27 0.34 0.33 0.36 0.32 0.34 0.39 0.37 0.29 0.27 0.30 0.35 0.43 0.37 0.39 0.35 0.34 0.33 0.24 0.22 0.20 0.18 0.15 0.13 0.14 0.13 0.11 0.08 0.07 0.09
0.15 0.14 0.08 0.01 0.00 0.00 0.01 0.01 0.04 0.04 0.09 0.12 0.06 0.01 0.02 0.00 0.00 0.00 0.00 0.00 0.01 0.06 0.17 0.24 0.23 0.27 0.24 0.25 0.23 0.21 0.22 0.18 0.20 0.20 0.25 0.28 0.35 0.28 0.27 0.28 0.26 0.21 0.17 0.17 0.15 0.16 0.11 0.12 0.13 0.09 0.07 0.06 0.06 0.06
0.05 0.01 0.00 0.00 0.00 0.00 0.00 0.00 0.03 0.03 0.01 0.02 0.02 0.00 0.00 0.00 0.00 0.00 0.00 0.01 0.13 0.20 0.23 0.19 0.20 0.18 0.15 0.19 0.22 0.20 0.23 0.16 0.15 0.15 0.17 0.17 0.18 0.18 0.19 0.20 0.13 0.11 0.08 0.08 0.05 0.05 0.05 0.04 0.03 0.03 0.03 0.03 0.02 0.02
0.00 0.00 0.00 0.00 0.00 0.00 0.00 0.00 0.00 0.01 0.01 0.01 0.00 0.00 0.00 0.00 0.00 0.00 0.01 0.06 0.21 0.20 0.11 0.08 0.10 0.08 0.09 0.14 0.09 0.09 0.10 0.07 0.08 0.09 0.10 0.09 0.09 0.09 0.07 0.06 0.05 0.04 0.03 0.04 0.02 0.02 0.01 0.01 0.00 0.00 0.00 0.00 0.00 0.00
0.00 0.00 0.00 0.00 0.00 0.00 0.00 0.00 0.00 0.00 0.00 0.00 0.00 0.01 0.01 0.00 0.00 0.00 0.02 0.09 0.16 0.12 0.08 0.06 0.02 0.01 0.01 0.00 0.01 0.01 0.01 0.00 0.01 0.02 0.02 0.01 0.00 0.01 0.01 0.00 0.01 0.01 0.00 0.00 0.00 0.00 0.00 0.00 0.00 0.00 0.00 0.00 0.00 0.00
0.00 0.00 0.00 0.00 0.00 0.00 0.00 0.00 0.00 0.00 0.00 0.00 0.00 0.02 0.01 0.00 0.00 0.01 0.02 0.08 0.08 0.07 0.05 0.02 0.01 0.00 0.00 0.00 0.00 0.00 0.00 0.00 0.00 0.00 0.01 0.00 0.00 0.00 0.00 0.00 0.00 0.01 0.00 0.00 0.00 0.00 0.00 0.00 0.00 0.00 0.00 0.00 0.00 0.00
0.01 0.01 0.00 0.00 0.00 0.00 0.00 0.00 0.00 0.00 0.00 0.00 0.02 0.01 0.00 0.00 0.00 0.03 0.05 0.07 0.05 0.05 0.06 0.05 0.01 0.00 0.00 0.00 0.00 0.00 0.00 0.00 0.00 0.00 0.00 0.00 0.00 0.00 0.00 0.00 0.00 0.01 0.01 0.00 0.00 0.00 0.00 0.00 0.00 0.00 0.00 0.00 0.00 0.00
0.00 0.01 0.00 0.01 0.00 0.00 0.00 0.00 0.00 0.00 0.01 0.01 0.01 0.00 0.00 0.00 0.02 0.05 0.07 0.05 0.02 0.02 0.01 0.01 0.00 0.00 0.00 0.00 0.00 0.00 0.00 0.00 0.00 0.00 0.00 0.00 0.00 0.00 0.00 0.00 0.00 0.01 0.01 0.00 0.00 0.00 0.00 0.00 0.00 0.00 0.00 0.00 0.00 0.00
0.00 0.00 0.00 0.00 0.00 0.00 0.00 0.00 0.00 0.01 0.01 0.01 0.00 0.00 0.01 0.01 0.05 0.09 0.05 0.03 0.01 0.00 0.00 0.00 0.00 0.00 0.00 0.00 0.00 0.00 0.00 0.00 0.00 0.00 0.00 0.00 0.00 0.00 0.00 0.00 0.00 0.00 0.00 0.00 0.00 0.00 0.00 0.00 0.00 0.00 0.00 0.00 0.00 0.01
0.00 0.00 0.00 0.00 0.00 0.00 0.01 0.01 0.01 0.01 0.02 0.01 0.00 0.02 0.02 0.05 0.07 0.06 0.05 0.03 0.02 0.01 0.00 0.00 0.00 0.00 0.00 0.00 0.00 0.00 0.00 0.00 0.00 0.00 0.00 0.01 0.01 0.01 0.00 0.00 0.00 0.00 0.01 0.01 0.00 0.01 0.01 0.00 0.00 0.00 0.00 0.00 0.00 0.00
0.00 0.00 0.00 0.00 0.01 0.02 0.05 0.02 0.03 0.02 0.00 0.00 0.00 0.03 0.03 0.08 0.11 0.06 0.04 0.04 0.04 0.03 0.02 0.01 0.02 0.01 0.01 0.01 0.00 0.00 0.00 0.00 0.00 0.01 0.00 0.01 0.01 0.01 0.01 0.01 0.00 0.00 0.00 0.00 0.00 0.00 0.00 0.00 0.00 0.01 0.00 0.00 0.00 0.00
0.00 0.00 0.00 0.00 0.02 0.02 0.01 0.01 0.01 0.00 0.00 0.00 0.00 0.00 0.03 0.06 0.05 0.05 0.03 0.02 0.01 0.00 0.00 0.00 0.01 0.01 0.00 0.00 0.00 0.00 0.00 0.00 0.00 0.00 0.00 0.00 0.00 0.00 0.00 0.00 0.00 0.01 0.00 0.00 0.00 0.00 0.00 0.00 0.00 0.00 0.00 0.00 0.00 0.00
0.00 0.00 0.00 0.00 0.03 0.02 0.04 0.06 0.02 0.01 0.01 0.00 0.01 0.01 0.01 0.01 0.02 0.02 0.03 0.02 0.02 0.03 0.01 0.01 0.01 0.01 0.00 0.00 0.00 0.00 0.00 0.00 0.00 0.00 0.00 0.00 0.00 0.00 0.00 0.01 0.01 0.00 0.00 0.00 0.00 0.00 0.00 0.00 0.00 0.00 0.00 0.00 0.00 0.00
0.00 0.00 0.00 0.00 0.01 0.02 0.03 0.02 0.00 0.01 0.01 0.01 0.01 0.02 0.02 0.01 0.01 0.03 0.02 0.02 0.04 0.03 0.01 0.01 0.01 0.01 0.00 0.00 0.00 0.00 0.00 0.00 0.00 0.00 0.00 0.00 0.00 0.00 0.00 0.00 0.00 0.00 0.00 0.00 0.00 0.00 0.00 0.00 0.00 0.00 0.00 0.00 0.00 0.00

GFSWCAN_prec_precacc24_075.txt.gz
Total_Precipitation_Accumulation
0.31 0.31 0.26 0.20 0.16 0.18 0.24 0.21 0.20 0.22 0.31 0.26 0.24 0.34 0.47 0.56 0.68 0.81 0.85 0.39 0.94 1.12 0.31 0.15 0.18 0.16 0.03 0.04 0.09 0.03 0.14 0.12 0.20 0.14 0.06 0.02 0.00 0.00 0.01 0.01 0.02 0.08 0.20 0.27 0.32 0.28 0.10 0.02 0.08 0.12 0.04 0.01 0.00 0.00
0.40 0.25 0.19 0.18 0.18 0.21 0.19 0.18 0.20 0.27 0.32 0.31 0.27 0.26 0.37 0.62 0.78 0.88 1.03 0.40 0.55 0.94 0.60 0.31 0.17 0.20 0.08 0.03 0.04 0.05 0.04 0.02 0.06 0.10 0.04 0.01 0.01 0.01 0.00 0.00 0.00 0.02 0.03 0.05 0.07 0.05 0.01 0.03 0.08 0.09 0.08 0.06 0.04 0.01
0.24 0.11 0.11 0.09 0.08 0.10 0.07 0.10 0.20 0.32 0.35 0.35 0.37 0.34 0.40 0.58 0.74 1.24 0.81 0.35 0.93 1.41 0.68 0.31 0.15 0.09 0.16 0.05 0.05 0.17 0.04 0.02 0.03 0.03 0.08 0.05 0.02 0.01 0.01 0.00 0.00 0.00 0.00 0.00 0.01 0.01 0.01 0.01 0.02 0.01 0.00 0.01 0.01 0.01
0.15 0.12 0.11 0.12 0.12 0.13 0.14 0.16 0.16 0.30 0.42 0.44 0.42 0.48 0.48 0.56 0.76 1.22 0.80 0.29 0.56 0.80 0.57 0.26 0.13 0.10 0.12 0.10 0.04 0.08 0.09 0.08 0.11 0.19 0.13 0.18 0.07 0.01 0.00 0.01 0.00 0.00 0.01 0.03 0.02 0.00 0.01 0.01 0.02 0.06 0.04 0.01 0.00 0.01
0.21 0.15 0.13 0.17 0.21 0.20 0.19 0.21 0.23 0.31 0.39 0.51 0.48 0.50 0.62 0.70 0.80 0.94 0.58 0.23 0.18 0.45 0.37 0.23 0.17 0.13 0.10 0.16 0.08 0.08 0.10 0.13 0.19 0.41 0.39 0.11 0.05 0.04 0.03 0.04 0.01 0.01 0.02 0.05 0.05 0.03 0.03 0.01 0.01 0.01 0.00 0.01 0.01 0.01
0.22 0.16 0.11 0.12 0.12 0.11 0.14 0.16 0.22 0.26 0.30 0.42 0.46 0.59 0.68 0.69 0.88 0.99 1.25 0.71 0.18 0.36 0.58 0.33 0.21 0.09 0.15 0.16 0.17 0.11 0.08 0.12 0.22 0.31 0.39 0.27 0.11 0.18 0.09 0.02 0.01 0.02 0.04 0.02 0.02 0.02 0.03 0.03 0.03 0.01 0.01 0.01 0.00 0.01
0.14 0.12 0.12 0.11 0.10 0.09 0.10 0.12 0.15 0.20 0.29 0.41 0.54 0.56 0.68 0.68 0.66 0.44 0.50 0.30 0.14 0.33 0.71 0.57 0.25 0.18 0.13 0.24 0.32 0.29 0.18 0.19 0.28 0.37 0.29 0.16 0.11 0.28 0.36 0.23 0.07 0.03 0.03 0.05 0.04 0.03 0.03 0.02 0.02 0.01 0.01 0.01 0.02 0.01
0.11 0.14 0.13 0.13 0.13 0.14 0.15 0.18 0.21 0.28 0.39 0.53 0.66 0.81 0.92 0.75 0.47 0.21 0.05 0.03 0.10 0.33 0.47 0.64 0.60 0.42 0.32 0.32 0.39 0.40 0.39 0.38 0.44 0.39 0.27 0.29 0.20 0.30 0.34 0.12 0.03 0.03 0.03 0.04 0.06 0.06 0.04 0.03 0.03 0.03 0.02 0.03 0.04 0.05
0.07 0.11 0.13 0.15 0.16 0.19 0.21 0.23 0.26 0.35 0.46 0.57 0.77 0.99 1.18 0.78 0.50 0.20 0.13 0.13 0.14 0.31 0.22 0.31 0.66 0.90 0.63 0.41 0.31 0.40 0.37 0.35 0.29 0.27 0.21 0.35 0.37 0.44 0.22 0.05 0.02 0.00 0.01 0.00 0.01 0.03 0.04 0.06 0.05 0.03 0.03 0.03 0.02 0.01
0.09 0.08 0.13 0.19 0.27 0.29 0.33 0.39 0.44 0.49 0.55 0.56 0.62 0.87 1.21 0.61 0.19 0.23 0.52 0.51 0.37 0.26 0.14 0.18 0.39 0.93 1.09 0.67 0.39 0.38 0.34 0.22 0.16 0.09 0.24 0.25 0.50 0.36 0.12 0.04 0.01 0.00 0.00 0.00 0.00 0.00 0.01 0.04 0.05 0.03 0.04 0.05 0.02 0.01
0.08 0.08 0.11 0.15 0.19 0.24 0.27 0.28 0.31 0.34 0.24 0.22 0.37 0.64 0.54 0.24 0.22 0.38 0.49 0.33 0.23 0.13 0.11 0.18 0.24 0.69 0.79 0.76 0.33 0.32 0.35 0.30 0.27 0.20 0.21 0.29 0.28 0.23 0.17 0.10 0.03 0.01 0.01 0.01 0.01 0.01 0.01 0.02 0.02 0.03 0.02 0.01 0.01 0.00
0.08 0.04 0.03 0.03 0.03 0.04 0.04 0.05 0.04 0.07 0.09 0.16 0.22 0.22 0.24 0.27 0.24 0.15 0.12 0.11 0.09 0.18 0.17 0.13 0.14 0.28 0.55 0.71 0.53 0.30 0.50 0.37 0.18 0.29 0.43 0.46 0.28 0.07 0.03 0.04 0.03 0.02 0.02 0.02 0.03 0.04 0.04 0.05 0.07 0.07 0.07 0.06 0.06 0.05
0.05 0.04 0.02 0.02 0.02 0.02 0.03 0.07 0.05 0.08 0.24 0.19 0.11 0.07 0.13 0.10 0.11 0.09 0.07 0.07 0.15 0.36 0.11 0.14 0.08 0.21 0.40 0.59 0.64 0.32 0.52 0.76 0.46 0.44 0.47 0.33 0.21 0.09 0.07 0.04 0.04 0.04 0.04 0.06 0.07 0.07 0.06 0.06 0.06 0.07 0.09 0.12 0.13 0.18
0.00 0.01 0.03 0.05 0.07 0.10 0.12 0.08 0.08 0.19 0.09 0.06 0.13 0.14 0.34 0.21 0.28 0.24 0.19 0.14 0.14 0.10 0.12 0.37 0.15 0.27 0.43 0.63 0.70 0.58 0.65 0.68 0.76 0.41 0.33 0.28 0.31 0.31 0.31 0.30 0.26 0.32 0.35 0.36 0.38 0.36 0.36 0.35 0.39 0.43 0.48 0.57 0.55 0.72
0.00 0.01 0.02 0.03 0.05 0.06 0.05 0.03 0.08 0.11 0.16 0.21 0.33 0.32 0.31 0.43 0.31 0.23 0.21 0.19 0.18 0.14 0.24 0.37 0.39 0.46 0.56 0.67 0.62 0.48 0.43 0.32 0.25 0.25 0.26 0.35 0.39 0.37 0.40 0.45 0.48 0.51 0.51 0.50 0.52 0.52 0.59 0.61 0.55 0.68 0.79 0.77 0.66 0.69
0.05 0.03 0.04 0.02 0.00 0.00 0.01 0.03 0.07 0.13 0.23 0.21 0.26 0.35 0.31 0.35 0.33 0.31 0.31 0.28 0.31 0.31 0.42 0.54 0.53 0.37 0.33 0.29 0.24 0.19 0.15 0.16 0.23 0.33 0.31 0.35 0.37 0.41 0.47 0.50 0.56 0.57 0.52 0.50 0.50 0.47 0.47 0.47 0.43 0.48 0.53 0.52 0.55 0.44
0.14 0.07 0.05 0.01 0.01 0.03 0.05 0.06 0.13 0.19 0.16 0.21 0.32 0.37 0.40 0.37 0.38 0.38 0.35 0.32 0.33 0.33 0.36 0.35 0.29 0.27 0.20 0.11 0.19 0.20 0.26 0.32 0.35 0.46 0.54 0.50 0.51 0.58 0.58 0.57 0.60 0.55 0.48 0.46 0.43 0.41 0.43 0.45 0.31 0.20 0.29 0.44 0.33 0.32
0.13 0.11 0.09 0.09 0.09 0.07 0.04 0.06 0.06 0.06 0.13 0.27 0.31 0.40 0.32 0.35 0.35 0.34 0.31 0.29 0.25 0.17 0.17 0.19 0.13 0.09 0.13 0.16 0.26 0.32 0.30 0.31 0.33 0.36 0.42 0.49 0.50 0.51 0.53 0.54 0.55 0.49 0.42 0.41 0.35 0.34 0.34 0.30 0.23 0.31 0.29 0.28 0.18 0.19
0.24 0.13 0.14 0.14 0.08 0.04 0.03 0.03 0.00 0.06 0.19 0.23 0.28 0.25 0.23 0.26 0.26 0.23 0.16 0.14 0.12 0.08 0.07 0.09 0.11 0.14 0.21 0.26 0.31 0.31 0.32 0.31 0.30 0.33 0.36 0.40 0.43 0.45 0.47 0.44 0.38 0.35 0.29 0.30 0.25 0.24 0.25 0.21 0.21 0.19 0.17 0.12 0.12 0.12
0.31 0.20 0.16 0.07 0.02 0.01 0.00 0.01 0.00 0.03 0.13 0.13 0.10 0.05 0.06 0.10 0.08 0.05 0.03 0.03 0.04 0.05 0.09 0.14 0.24 0.29 0.28 0.30 0.26 0.26 0.31 0.28 0.20 0.21 0.25 0.30 0.35 0.31 0.32 0.29 0.29 0.29 0.21 0.19 0.17 0.15 0.12 0.09 0.10 0.08 0.07 0.06 0.05 0.07
0.15 0.14 0.08 0.01 0.00 0.00 0.01 0.01 0.04 0.03 0.07 0.11 0.05 0.01 0.02 0.00 0.00 0.00 0.00 0.00 0.01 0.05 0.15 0.19 0.18 0.22 0.18 0.18 0.16 0.13 0.15 0.11 0.14 0.15 0.19 0.22 0.28 0.22 0.22 0.22 0.21 0.17 0.14 0.15 0.12 0.12 0.07 0.08 0.09 0.05 0.03 0.03 0.04 0.04
0.05 0.01 0.00 0.00 0.00 0.00 0.00 0.00 0.03 0.03 0.01 0.02 0.01 0.00 0.00 0.00 0.00 0.00 0.00 0.01 0.12 0.18 0.19 0.15 0.16 0.13 0.10 0.14 0.16 0.13 0.16 0.11 0.10 0.09 0.12 0.12 0.13 0.13 0.15 0.15 0.09 0.07 0.05 0.04 0.03 0.03 0.02 0.02 0.02 0.01 0.01 0.01 0.01 0.00
0.00 0.00 0.00 0.00 0.00 0.00 0.01 0.01 0.00 0.01 0.01 0.01 0.00 0.00 0.00 0.00 0.00 0.00 0.01 0.06 0.20 0.18 0.09 0.06 0.07 0.05 0.06 0.09 0.05 0.06 0.06 0.04 0.05 0.06 0.06 0.06 0.06 0.05 0.04 0.03 0.02 0.02 0.01 0.02 0.01 0.01 0.00 0.00 0.00 0.00 0.00 0.00 0.00 0.00
0.00 0.00 0.00 0.00 0.00 0.00 0.00 0.00 0.00 0.00 0.00 0.00 0.00 0.01 0.01 0.00 0.00 0.00 0.02 0.08 0.15 0.11 0.07 0.05 0.02 0.01 0.00 0.00 0.00 0.01 0.00 0.00 0.01 0.01 0.01 0.00 0.00 0.00 0.00 0.00 0.00 0.01 0.00 0.00 0.00 0.00 0.00 0.00 0.00 0.00 0.00 0.00 0.00 0.00
0.00 0.00 0.00 0.00 0.00 0.00 0.00 0.00 0.00 0.00 0.00 0.00 0.00 0.01 0.00 0.00 0.00 0.01 0.02 0.08 0.08 0.07 0.05 0.02 0.01 0.00 0.00 0.00 0.00 0.00 0.00 0.00 0.00 0.00 0.00 0.00 0.00 0.00 0.00 0.00 0.00 0.01 0.00 0.00 0.00 0.00 0.00 0.00 0.00 0.00 0.00 0.00 0.00 0.00
0.01 0.01 0.00 0.00 0.00 0.00 0.00 0.00 0.00 0.00 0.00 0.00 0.01 0.01 0.00 0.00 0.00 0.02 0.05 0.06 0.04 0.04 0.06 0.05 0.01 0.00 0.00 0.00 0.00 0.00 0.00 0.00 0.00 0.00 0.00 0.00 0.00 0.00 0.00 0.00 0.00 0.00 0.00 0.00 0.00 0.00 0.00 0.00 0.00 0.00 0.00 0.00 0.00 0.00
0.00 0.01 0.00 0.00 0.00 0.00 0.00 0.00 0.00 0.00 0.00 0.01 0.01 0.00 0.00 0.00 0.01 0.05 0.06 0.04 0.02 0.02 0.01 0.01 0.00 0.00 0.00 0.00 0.00 0.00 0.00 0.00 0.00 0.00 0.00 0.00 0.00 0.00 0.00 0.00 0.00 0.01 0.00 0.00 0.00 0.00 0.00 0.00 0.00 0.00 0.00 0.00 0.00 0.00
0.00 0.00 0.00 0.00 0.00 0.00 0.00 0.00 0.00 0.01 0.01 0.01 0.00 0.00 0.01 0.01 0.04 0.08 0.04 0.02 0.00 0.00 0.00 0.00 0.00 0.00 0.00 0.00 0.00 0.00 0.00 0.00 0.00 0.00 0.00 0.00 0.00 0.00 0.00 0.00 0.00 0.00 0.00 0.00 0.00 0.00 0.00 0.00 0.00 0.00 0.00 0.00 0.00 0.01
0.00 0.00 0.00 0.00 0.00 0.00 0.01 0.01 0.01 0.01 0.02 0.01 0.00 0.02 0.02 0.05 0.07 0.05 0.04 0.02 0.01 0.00 0.00 0.00 0.00 0.00 0.00 0.00 0.00 0.00 0.00 0.00 0.00 0.00 0.00 0.01 0.01 0.01 0.00 0.00 0.00 0.00 0.01 0.01 0.00 0.01 0.01 0.00 0.00 0.00 0.00 0.00 0.00 0.00
0.00 0.00 0.00 0.00 0.00 0.02 0.05 0.02 0.03 0.02 0.01 0.00 0.00 0.03 0.03 0.08 0.12 0.06 0.04 0.04 0.03 0.03 0.02 0.01 0.02 0.01 0.01 0.01 0.00 0.00 0.00 0.00 0.00 0.01 0.00 0.01 0.00 0.00 0.01 0.01 0.00 0.01 0.00 0.00 0.00 0.00 0.00 0.00 0.01 0.01 0.00 0.00 0.00 0.00
0.00 0.00 0.00 0.00 0.02 0.02 0.02 0.01 0.01 0.00 0.00 0.00 0.00 0.00 0.03 0.06 0.06 0.05 0.03 0.02 0.01 0.00 0.00 0.00 0.01 0.01 0.00 0.00 0.00 0.00 0.00 0.00 0.00 0.00 0.00 0.00 0.00 0.00 0.00 0.00 0.00 0.01 0.00 0.00 0.00 0.00 0.00 0.00 0.00 0.00 0.00 0.00 0.00 0.00
0.00 0.00 0.00 0.00 0.03 0.02 0.04 0.05 0.02 0.01 0.01 0.00 0.01 0.01 0.01 0.01 0.02 0.02 0.03 0.02 0.02 0.03 0.01 0.01 0.01 0.01 0.00 0.00 0.00 0.00 0.00 0.00 0.00 0.00 0.00 0.00 0.00 0.00 0.00 0.01 0.01 0.00 0.00 0.00 0.00 0.00 0.00 0.00 0.00 0.00 0.00 0.00 0.00 0.00
0.00 0.00 0.00 0.00 0.01 0.02 0.02 0.02 0.00 0.00 0.01 0.01 0.01 0.02 0.02 0.01 0.01 0.03 0.02 0.03 0.04 0.03 0.01 0.01 0.01 0.01 0.00 0.00 0.00 0.00 0.00 0.00 0.00 0.00 0.00 0.00 0.00 0.00 0.00 0.00 0.00 0.00 0.00 0.00 0.00 0.00 0.00 0.00 0.00 0.00 0.00 0.00 0.00 0.00

GFSWCAN_prec_precacc24_078.txt.gz
Total_Precipitation_Accumulation
0.32 0.33 0.26 0.20 0.16 0.17 0.20 0.18 0.18 0.20 0.24 0.20 0.18 0.30 0.44 0.55 0.72 0.94 0.92 0.42 0.96 1.17 0.29 0.09 0.12 0.11 0.04 0.06 0.12 0.06 0.24 0.21 0.27 0.19 0.08 0.03 0.01 0.01 0.01 0.01 0.03 0.08 0.20 0.29 0.33 0.30 0.11 0.02 0.09 0.13 0.04 0.01 0.00 0.00
0.42 0.28 0.19 0.18 0.19 0.20 0.18 0.18 0.19 0.23 0.24 0.25 0.21 0.23 0.35 0.62 0.84 1.02 1.12 0.45 0.57 0.96 0.61 0.19 0.13 0.17 0.07 0.04 0.09 0.11 0.07 0.03 0.06 0.12 0.05 0.02 0.02 0.01 0.00 0.00 0.00 0.03 0.03 0.06 0.08 0.05 0.02 0.04 0.08 0.09 0.08 0.06 0.04 0.01
0.24 0.11 0.12 0.10 0.09 0.10 0.07 0.08 0.13 0.27 0.29 0.28 0.34 0.33 0.39 0.59 0.78 1.34 0.93 0.38 1.02 1.57 0.73 0.32 0.11 0.04 0.13 0.05 0.07 0.21 0.05 0.02 0.03 0.03 0.09 0.06 0.03 0.01 0.01 0.00 0.00 0.00 0.00 0.01 0.02 0.01 0.01 0.01 0.02 0.01 0.00 0.01 0.01 0.01
0.10 0.08 0.08 0.09 0.10 0.09 0.07 0.06 0.05 0.20 0.32 0.35 0.41 0.49 0.45 0.52 0.77 1.39 0.92 0.32 0.63 0.90 0.61 0.29 0.12 0.11 0.11 0.10 0.04 0.08 0.09 0.09 0.12 0.21 0.15 0.20 0.08 0.01 0.01 0.01 0.00 0.00 0.00 0.02 0.02 0.00 0.01 0.01 0.02 0.06 0.04 0.01 0.00 0.01
0.15 0.07 0.07 0.12 0.15 0.11 0.09 0.08 0.08 0.16 0.25 0.43 0.49 0.51 0.61 0.69 0.98 1.22 0.66 0.28 0.21 0.48 0.42 0.24 0.15 0.08 0.06 0.15 0.06 0.08 0.12 0.15 0.20 0.46 0.43 0.14 0.07 0.06 0.04 0.05 0.01 0.01 0.02 0.04 0.05 0.02 0.02 0.01 0.01 0.01 0.00 0.01 0.01 0.01
0.19 0.14 0.08 0.08 0.08 0.07 0.09 0.10 0.15 0.19 0.24 0.44 0.54 0.66 0.74 0.89 1.17 1.20 1.50 0.97 0.27 0.41 0.61 0.33 0.20 0.07 0.07 0.11 0.12 0.08 0.12 0.18 0.28 0.34 0.40 0.29 0.12 0.21 0.11 0.03 0.01 0.02 0.04 0.02 0.02 0.01 0.02 0.03 0.03 0.01 0.01 0.01 0.00 0.01
0.12 0.11 0.12 0.10 0.09 0.08 0.09 0.10 0.14 0.20 0.29 0.51 0.68 0.67 0.81 0.89 0.75 0.50 0.57 0.43 0.21 0.32 0.61 0.53 0.24 0.16 0.10 0.14 0.24 0.28 0.23 0.26 0.32 0.45 0.33 0.16 0.11 0.31 0.38 0.23 0.07 0.03 0.03 0.05 0.04 0.03 0.03 0.02 0.02 0.01 0.01 0.01 0.02 0.01
0.10 0.13 0.14 0.13 0.13 0.16 0.17 0.18 0.22 0.28 0.45 0.69 0.82 0.90 1.03 0.89 0.60 0.26 0.04 0.02 0.06 0.25 0.37 0.57 0.58 0.38 0.21 0.21 0.32 0.37 0.41 0.39 0.46 0.45 0.33 0.30 0.22 0.32 0.36 0.13 0.03 0.03 0.03 0.04 0.05 0.06 0.04 0.03 0.03 0.03 0.02 0.03 0.04 0.05
0.06 0.10 0.13 0.16 0.18 0.20 0.23 0.25 0.31 0.46 0.64 0.79 0.95 1.17 1.34 0.92 0.60 0.23 0.11 0.13 0.13 0.20 0.18 0.28 0.55 0.84 0.57 0.37 0.27 0.36 0.40 0.45 0.40 0.34 0.27 0.42 0.42 0.47 0.24 0.06 0.02 0.01 0.01 0.00 0.01 0.02 0.05 0.06 0.05 0.03 0.03 0.03 0.02 0.02
0.08 0.07 0.12 0.19 0.28 0.33 0.43 0.60 0.68 0.73 0.78 0.76 0.78 0.99 1.38 0.71 0.19 0.20 0.53 0.50 0.32 0.19 0.12 0.18 0.20 0.58 1.00 0.67 0.40 0.47 0.41 0.27 0.23 0.20 0.29 0.35 0.55 0.38 0.12 0.04 0.02 0.01 0.00 0.01 0.01 0.00 0.01 0.05 0.06 0.05 0.06 0.08 0.08 0.07
0.07 0.06 0.08 0.13 0.18 0.26 0.35 0.41 0.44 0.42 0.30 0.29 0.44 0.73 0.68 0.28 0.19 0.37 0.50 0.34 0.25 0.14 0.11 0.19 0.16 0.44 0.72 0.75 0.36 0.43 0.43 0.23 0.14 0.17 0.26 0.33 0.30 0.23 0.17 0.10 0.04 0.01 0.01 0.01 0.01 0.01 0.01 0.02 0.04 0.05 0.05 0.06 0.06 0.08
0.09 0.04 0.01 0.02 0.03 0.04 0.05 0.06 0.05 0.08 0.10 0.10 0.21 0.28 0.26 0.25 0.25 0.15 0.14 0.13 0.11 0.21 0.19 0.16 0.17 0.30 0.62 0.74 0.55 0.36 0.53 0.40 0.17 0.24 0.38 0.45 0.29 0.07 0.03 0.04 0.03 0.02 0.02 0.02 0.03 0.04 0.04 0.06 0.08 0.08 0.09 0.11 0.12 0.12
0.05 0.04 0.01 0.00 0.00 0.00 0.01 0.00 0.01 0.02 0.06 0.10 0.06 0.04 0.09 0.07 0.05 0.05 0.06 0.06 0.16 0.38 0.14 0.19 0.14 0.31 0.48 0.62 0.66 0.33 0.52 0.77 0.44 0.33 0.34 0.26 0.17 0.07 0.06 0.04 0.04 0.04 0.03 0.03 0.04 0.04 0.04 0.05 0.05 0.06 0.08 0.11 0.12 0.15
0.00 0.02 0.01 0.00 0.00 0.00 0.00 0.00 0.05 0.10 0.02 0.02 0.02 0.02 0.10 0.07 0.11 0.14 0.13 0.11 0.13 0.11 0.13 0.38 0.14 0.29 0.43 0.62 0.69 0.55 0.61 0.64 0.68 0.33 0.22 0.17 0.19 0.17 0.18 0.18 0.18 0.23 0.23 0.22 0.24 0.23 0.25 0.28 0.34 0.37 0.42 0.48 0.42 0.56
0.00 0.01 0.01 0.02 0.03 0.03 0.02 0.02 0.03 0.00 0.00 0.02 0.05 0.11 0.11 0.20 0.13 0.09 0.08 0.08 0.08 0.08 0.22 0.31 0.30 0.38 0.50 0.60 0.55 0.43 0.38 0.29 0.22 0.21 0.19 0.27 0.30 0.24 0.27 0.32 0.37 0.42 0.43 0.42 0.41 0.37 0.42 0.45 0.39 0.52 0.62 0.62 0.55 0.61
0.04 0.03 0.04 0.02 0.00 0.00 0.00 0.01 0.02 0.01 0.03 0.05 0.13 0.20 0.13 0.13 0.10 0.09 0.09 0.09 0.10 0.13 0.25 0.34 0.38 0.29 0.27 0.26 0.22 0.17 0.14 0.14 0.21 0.31 0.28 0.31 0.33 0.35 0.40 0.43 0.47 0.47 0.43 0.42 0.44 0.42 0.40 0.40 0.37 0.43 0.46 0.47 0.51 0.43
0.12 0.06 0.04 0.01 0.00 0.00 0.01 0.01 0.04 0.05 0.08 0.13 0.22 0.23 0.22 0.21 0.22 0.22 0.21 0.19 0.21 0.23 0.29 0.30 0.27 0.26 0.18 0.11 0.19 0.20 0.25 0.29 0.31 0.42 0.48 0.46 0.47 0.52 0.51 0.48 0.51 0.47 0.43 0.43 0.42 0.40 0.43 0.44 0.32 0.22 0.30 0.46 0.35 0.33
0.10 0.06 0.06 0.06 0.06 0.03 0.01 0.03 0.04 0.04 0.11 0.20 0.26 0.33 0.26 0.29 0.31 0.30 0.28 0.26 0.23 0.17 0.17 0.19 0.13 0.09 0.14 0.17 0.26 0.32 0.31 0.31 0.28 0.31 0.36 0.43 0.44 0.46 0.47 0.48 0.49 0.45 0.40 0.40 0.37 0.35 0.34 0.31 0.23 0.30 0.29 0.29 0.18 0.19
0.11 0.07 0.07 0.06 0.03 0.01 0.01 0.02 0.00 0.05 0.16 0.21 0.25 0.22 0.21 0.25 0.25 0.22 0.16 0.14 0.12 0.08 0.07 0.09 0.11 0.14 0.19 0.25 0.29 0.28 0.29 0.26 0.25 0.27 0.29 0.33 0.36 0.39 0.41 0.38 0.34 0.33 0.29 0.30 0.25 0.23 0.23 0.19 0.19 0.17 0.14 0.09 0.09 0.10
0.13 0.07 0.04 0.01 0.00 0.00 0.00 0.01 0.00 0.03 0.11 0.13 0.10 0.05 0.06 0.10 0.08 0.05 0.03 0.03 0.04 0.05 0.09 0.13 0.22 0.26 0.25 0.27 0.21 0.21 0.26 0.22 0.14 0.15 0.20 0.24 0.28 0.24 0.26 0.25 0.25 0.25 0.20 0.18 0.16 0.14 0.10 0.07 0.07 0.05 0.04 0.03 0.03 0.05
0.04 0.01 0.00 0.00 0.00 0.00 0.01 0.01 0.03 0.02 0.06 0.10 0.04 0.01 0.02 0.00 0.00 0.00 0.00 0.00 0.01 0.05 0.13 0.17 0.16 0.19 0.14 0.14 0.11 0.08 0.09 0.06 0.09 0.10 0.14 0.17 0.21 0.17 0.17 0.19 0.18 0.15 0.13 0.13 0.10 0.09 0.06 0.06 0.06 0.03 0.02 0.02 0.02 0.02
0.02 0.00 0.00 0.00 0.00 0.00 0.00 0.00 0.03 0.03 0.01 0.02 0.01 0.00 0.00 0.00 0.00 0.00 0.00 0.01 0.11 0.16 0.17 0.13 0.13 0.10 0.07 0.10 0.12 0.08 0.10 0.06 0.06 0.06 0.08 0.08 0.10 0.11 0.12 0.12 0.07 0.06 0.04 0.03 0.01 0.01 0.01 0.01 0.00 0.00 0.01 0.01 0.00 0.00
0.00 0.00 0.00 0.00 0.00 0.00 0.01 0.01 0.00 0.01 0.01 0.01 0.00 0.00 0.00 0.00 0.00 0.00 0.01 0.05 0.19 0.16 0.07 0.04 0.06 0.03 0.04 0.06 0.03 0.04 0.03 0.01 0.03 0.03 0.04 0.03 0.03 0.03 0.02 0.01 0.01 0.00 0.00 0.01 0.00 0.00 0.00 0.00 0.00 0.00 0.00 0.00 0.00 0.00
0.00 0.00 0.00 0.00 0.00 0.00 0.00 0.00 0.00 0.00 0.00 0.00 0.00 0.01 0.01 0.00 0.00 0.00 0.02 0.08 0.14 0.10 0.06 0.05 0.01 0.01 0.00 0.00 0.00 0.00 0.00 0.00 0.00 0.00 0.00 0.00 0.00 0.00 0.00 0.00 0.00 0.01 0.00 0.00 0.00 0.00 0.00 0.00 0.00 0.00 0.00 0.00 0.00 0.00
0.00 0.00 0.00 0.00 0.00 0.00 0.00 0.00 0.00 0.00 0.00 0.00 0.00 0.01 0.00 0.00 0.00 0.01 0.02 0.07 0.07 0.06 0.04 0.01 0.00 0.00 0.00 0.00 0.00 0.00 0.00 0.00 0.00 0.00 0.00 0.00 0.00 0.00 0.00 0.00 0.00 0.00 0.00 0.00 0.01 0.00 0.00 0.00 0.00 0.00 0.00 0.00 0.00 0.00
0.01 0.01 0.00 0.00 0.00 0.00 0.00 0.00 0.00 0.00 0.00 0.00 0.01 0.01 0.00 0.00 0.00 0.02 0.04 0.05 0.04 0.03 0.05 0.04 0.01 0.00 0.00 0.00 0.00 0.00 0.00 0.00 0.00 0.00 0.00 0.00 0.00 0.00 0.00 0.00 0.00 0.00 0.00 0.00 0.00 0.00 0.00 0.00 0.00 0.00 0.00 0.00 0.00 0.00
0.00 0.01 0.00 0.00 0.00 0.00 0.00 0.00 0.00 0.00 0.00 0.01 0.01 0.00 0.00 0.00 0.01 0.04 0.06 0.04 0.01 0.01 0.01 0.01 0.00 0.00 0.00 0.00 0.00 0.00 0.00 0.00 0.00 0.00 0.00 0.00 0.00 0.00 0.00 0.00 0.00 0.01 0.00 0.00 0.00 0.00 0.00 0.00 0.00 0.00 0.00 0.00 0.00 0.00
0.00 0.00 0.00 0.00 0.00 0.00 0.00 0.00 0.00 0.01 0.01 0.01 0.00 0.00 0.00 0.01 0.04 0.08 0.04 0.02 0.01 0.00 0.00 0.00 0.00 0.00 0.00 0.00 0.00 0.00 0.00 0.00 0.00 0.00 0.00 0.00 0.00 0.00 0.00 0.00 0.00 0.00 0.00 0.00 0.00 0.00 0.00 0.00 0.00 0.00 0.00 0.00 0.00 0.00
0.00 0.00 0.00 0.00 0.00 0.00 0.01 0.01 0.01 0.01 0.02 0.01 0.00 0.01 0.02 0.06 0.07 0.05 0.04 0.01 0.01 0.00 0.00 0.00 0.00 0.00 0.00 0.00 0.00 0.00 0.00 0.00 0.00 0.00 0.00 0.01 0.01 0.01 0.00 0.00 0.00 0.00 0.01 0.01 0.01 0.01 0.01 0.00 0.00 0.00 0.00 0.00 0.00 0.00
0.00 0.00 0.00 0.00 0.01 0.02 0.06 0.03 0.03 0.02 0.01 0.00 0.00 0.03 0.03 0.09 0.13 0.06 0.03 0.03 0.03 0.02 0.01 0.01 0.02 0.01 0.01 0.01 0.00 0.00 0.00 0.00 0.00 0.01 0.01 0.01 0.00 0.00 0.01 0.01 0.00 0.00 0.00 0.00 0.00 0.00 0.00 0.00 0.01 0.01 0.00 0.00 0.00 0.00
0.00 0.00 0.00 0.00 0.02 0.03 0.02 0.01 0.01 0.00 0.00 0.00 0.00 0.01 0.03 0.07 0.06 0.05 0.03 0.02 0.01 0.00 0.00 0.00 0.01 0.01 0.00 0.00 0.00 0.00 0.00 0.00 0.00 0.00 0.00 0.00 0.00 0.00 0.00 0.00 0.00 0.01 0.00 0.00 0.00 0.00 0.00 0.00 0.00 0.00 0.00 0.00 0.00 0.00
0.00 0.00 0.00 0.00 0.03 0.02 0.04 0.05 0.01 0.01 0.01 0.00 0.01 0.00 0.01 0.01 0.02 0.03 0.03 0.02 0.02 0.02 0.01 0.01 0.01 0.01 0.00 0.00 0.00 0.00 0.00 0.00 0.00 0.00 0.00 0.00 0.00 0.01 0.01 0.01 0.01 0.01 0.00 0.00 0.00 0.00 0.00 0.00 0.00 0.00 0.00 0.00 0.00 0.00
0.00 0.00 0.00 0.00 0.01 0.01 0.02 0.01 0.00 0.00 0.01 0.01 0.01 0.02 0.02 0.01 0.02 0.03 0.03 0.03 0.05 0.04 0.01 0.01 0.01 0.00 0.00 0.00 0.00 0.00 0.00 0.00 0.00 0.00 0.00 0.00 0.00 0.00 0.00 0.00 0.00 0.00 0.00 0.00 0.00 0.00 0.00 0.00 0.00 0.00 0.00 0.00 0.00 0.00

GFSWCAN_prec_precacc24_084.txt.gz
Total_Precipitation_Accumulation
0.29 0.32 0.26 0.21 0.16 0.13 0.12 0.13 0.13 0.14 0.14 0.13 0.16 0.24 0.47 0.60 0.59 0.89 0.83 0.39 0.95 1.17 0.27 0.07 0.06 0.09 0.06 0.14 0.25 0.20 0.42 0.22 0.25 0.25 0.15 0.09 0.09 0.07 0.02 0.07 0.07 0.08 0.18 0.28 0.31 0.27 0.11 0.02 0.11 0.18 0.11 0.01 0.00 0.00
0.43 0.30 0.21 0.17 0.15 0.16 0.16 0.16 0.15 0.16 0.17 0.20 0.19 0.17 0.29 0.56 0.84 1.20 1.24 0.41 0.55 0.91 0.50 0.14 0.04 0.02 0.06 0.12 0.32 0.36 0.17 0.06 0.05 0.14 0.11 0.09 0.09 0.06 0.03 0.04 0.03 0.09 0.02 0.06 0.07 0.06 0.02 0.06 0.11 0.12 0.08 0.06 0.04 0.01
0.26 0.13 0.13 0.08 0.05 0.04 0.05 0.06 0.11 0.24 0.24 0.23 0.28 0.25 0.28 0.40 0.76 1.65 1.24 0.34 0.96 1.48 0.72 0.31 0.10 0.01 0.01 0.07 0.13 0.21 0.12 0.14 0.13 0.12 0.22 0.17 0.11 0.03 0.04 0.02 0.05 0.05 0.00 0.09 0.12 0.07 0.11 0.16 0.08 0.02 0.00 0.01 0.01 0.01
0.10 0.09 0.07 0.03 0.03 0.04 0.05 0.05 0.04 0.18 0.30 0.30 0.33 0.37 0.34 0.39 0.71 1.62 1.24 0.31 0.69 0.99 0.62 0.26 0.10 0.08 0.04 0.04 0.06 0.06 0.08 0.14 0.21 0.36 0.33 0.29 0.14 0.03 0.03 0.02 0.02 0.03 0.03 0.04 0.05 0.05 0.17 0.24 0.13 0.08 0.04 0.01 0.00 0.01
0.06 0.05 0.04 0.05 0.04 0.03 0.05 0.06 0.06 0.14 0.19 0.37 0.39 0.42 0.48 0.51 0.93 1.54 0.87 0.25 0.22 0.49 0.45 0.22 0.14 0.07 0.07 0.11 0.09 0.11 0.14 0.19 0.32 0.59 0.59 0.21 0.12 0.11 0.08 0.10 0.06 0.05 0.07 0.10 0.13 0.06 0.10 0.12 0.01 0.00 0.00 0.01 0.01 0.01
0.04 0.04 0.03 0.04 0.05 0.04 0.06 0.07 0.12 0.14 0.17 0.35 0.42 0.52 0.62 0.84 1.44 1.76 1.95 1.18 0.27 0.46 0.76 0.45 0.21 0.07 0.04 0.07 0.11 0.08 0.14 0.28 0.45 0.50 0.48 0.35 0.18 0.32 0.22 0.12 0.08 0.03 0.04 0.03 0.02 0.01 0.02 0.03 0.03 0.01 0.01 0.01 0.00 0.01
0.04 0.04 0.05 0.04 0.05 0.06 0.07 0.06 0.07 0.11 0.18 0.39 0.59 0.69 0.92 1.12 1.07 0.61 0.65 0.54 0.24 0.44 0.81 0.72 0.30 0.15 0.07 0.10 0.22 0.30 0.34 0.43 0.34 0.44 0.33 0.23 0.21 0.40 0.47 0.38 0.16 0.04 0.03 0.05 0.04 0.03 0.03 0.02 0.02 0.01 0.01 0.01 0.02 0.01
0.05 0.07 0.07 0.06 0.09 0.12 0.11 0.11 0.13 0.20 0.42 0.71 0.93 0.99 1.21 1.19 0.78 0.31 0.04 0.03 0.09 0.39 0.50 0.63 0.59 0.34 0.17 0.15 0.28 0.34 0.54 0.54 0.56 0.46 0.29 0.31 0.30 0.41 0.51 0.16 0.04 0.03 0.03 0.04 0.05 0.06 0.04 0.03 0.03 0.03 0.02 0.03 0.04 0.05
0.05 0.08 0.11 0.15 0.18 0.19 0.19 0.22 0.32 0.59 0.85 1.05 1.20 1.55 1.84 1.19 0.79 0.26 0.12 0.16 0.16 0.25 0.24 0.31 0.49 0.67 0.23 0.21 0.17 0.36 0.34 0.55 0.48 0.33 0.25 0.43 0.46 0.55 0.32 0.06 0.02 0.01 0.01 0.00 0.01 0.02 0.05 0.06 0.05 0.03 0.03 0.03 0.02 0.02
0.08 0.08 0.11 0.19 0.30 0.37 0.51 0.74 0.90 0.97 0.99 0.89 0.94 1.21 1.72 0.84 0.22 0.28 0.66 0.67 0.48 0.25 0.14 0.18 0.24 0.32 0.28 0.26 0.19 0.36 0.26 0.26 0.31 0.21 0.23 0.35 0.57 0.39 0.13 0.05 0.02 0.01 0.00 0.01 0.01 0.00 0.01 0.05 0.06 0.05 0.06 0.08 0.08 0.07
0.08 0.09 0.13 0.19 0.24 0.33 0.44 0.50 0.50 0.44 0.32 0.33 0.50 0.89 0.86 0.34 0.17 0.32 0.55 0.38 0.27 0.15 0.13 0.23 0.18 0.19 0.16 0.16 0.15 0.27 0.29 0.21 0.18 0.18 0.24 0.35 0.30 0.24 0.17 0.10 0.04 0.01 0.01 0.01 0.01 0.01 0.02 0.03 0.04 0.06 0.06 0.06 0.07 0.08
0.10 0.05 0.07 0.10 0.11 0.11 0.09 0.08 0.09 0.12 0.14 0.09 0.26 0.43 0.35 0.21 0.21 0.17 0.14 0.14 0.13 0.19 0.15 0.15 0.14 0.15 0.26 0.19 0.20 0.20 0.47 0.42 0.23 0.23 0.31 0.31 0.24 0.07 0.03 0.04 0.03 0.02 0.02 0.02 0.03 0.04 0.05 0.06 0.09 0.09 0.10 0.12 0.14 0.14
0.08 0.05 0.03 0.04 0.05 0.04 0.04 0.04 0.03 0.01 0.01 0.02 0.02 0.03 0.04 0.03 0.04 0.06 0.07 0.09 0.15 0.35 0.14 0.16 0.12 0.21 0.30 0.37 0.35 0.20 0.41 0.81 0.35 0.27 0.24 0.17 0.14 0.06 0.05 0.03 0.03 0.03 0.03 0.03 0.04 0.05 0.05 0.05 0.06 0.07 0.09 0.13 0.13 0.16
0.03 0.02 0.02 0.03 0.03 0.04 0.02 0.00 0.00 0.00 0.00 0.00 0.00 0.00 0.01 0.02 0.07 0.10 0.10 0.09 0.12 0.11 0.14 0.37 0.14 0.26 0.35 0.49 0.46 0.43 0.45 0.56 0.56 0.24 0.14 0.15 0.15 0.13 0.12 0.10 0.07 0.10 0.11 0.11 0.15 0.14 0.15 0.15 0.18 0.20 0.24 0.30 0.22 0.30
0.01 0.01 0.00 0.00 0.00 0.01 0.00 0.00 0.00 0.00 0.00 0.00 0.00 0.03 0.05 0.14 0.10 0.09 0.08 0.08 0.09 0.09 0.22 0.31 0.28 0.31 0.45 0.50 0.44 0.38 0.35 0.26 0.19 0.18 0.17 0.22 0.22 0.17 0.18 0.18 0.17 0.18 0.20 0.22 0.24 0.22 0.26 0.27 0.20 0.29 0.36 0.34 0.29 0.33
0.05 0.01 0.00 0.00 0.00 0.00 0.00 0.00 0.00 0.00 0.00 0.00 0.03 0.07 0.05 0.08 0.07 0.05 0.06 0.07 0.08 0.10 0.17 0.20 0.14 0.14 0.21 0.22 0.19 0.14 0.12 0.12 0.18 0.27 0.23 0.23 0.24 0.26 0.28 0.28 0.31 0.31 0.30 0.31 0.32 0.30 0.30 0.29 0.28 0.32 0.32 0.31 0.33 0.27
0.13 0.04 0.03 0.01 0.00 0.00 0.00 0.00 0.00 0.00 0.00 0.02 0.06 0.06 0.05 0.06 0.08 0.09 0.07 0.05 0.05 0.08 0.11 0.13 0.12 0.16 0.12 0.09 0.16 0.18 0.22 0.25 0.25 0.35 0.41 0.35 0.37 0.41 0.39 0.36 0.37 0.36 0.34 0.35 0.33 0.31 0.32 0.32 0.24 0.17 0.23 0.35 0.28 0.27
0.10 0.05 0.06 0.05 0.06 0.03 0.00 0.00 0.00 0.00 0.02 0.06 0.08 0.11 0.04 0.06 0.07 0.06 0.05 0.04 0.02 0.02 0.04 0.07 0.06 0.07 0.10 0.13 0.20 0.26 0.25 0.23 0.22 0.23 0.26 0.30 0.31 0.33 0.33 0.34 0.35 0.34 0.32 0.32 0.29 0.27 0.26 0.24 0.20 0.25 0.24 0.25 0.16 0.16
0.05 0.02 0.01 0.01 0.01 0.01 0.00 0.00 0.00 0.02 0.09 0.10 0.10 0.07 0.05 0.07 0.08 0.07 0.04 0.02 0.00 0.00 0.00 0.00 0.01 0.06 0.12 0.14 0.16 0.17 0.18 0.15 0.16 0.18 0.20 0.22 0.24 0.25 0.27 0.26 0.25 0.25 0.23 0.24 0.21 0.19 0.19 0.16 0.16 0.14 0.11 0.07 0.06 0.06
0.02 0.00 0.00 0.00 0.00 0.00 0.00 0.00 0.00 0.01 0.08 0.11 0.09 0.04 0.04 0.06 0.05 0.02 0.01 0.01 0.00 0.01 0.03 0.06 0.13 0.18 0.17 0.21 0.14 0.14 0.17 0.12 0.08 0.09 0.13 0.15 0.17 0.15 0.17 0.17 0.18 0.18 0.16 0.15 0.14 0.12 0.09 0.06 0.04 0.03 0.01 0.01 0.01 0.03
0.00 0.00 0.00 0.00 0.00 0.00 0.00 0.00 0.02 0.02 0.05 0.09 0.03 0.01 0.01 0.00 0.00 0.00 0.00 0.00 0.01 0.03 0.10 0.13 0.13 0.16 0.11 0.10 0.07 0.04 0.06 0.04 0.06 0.06 0.07 0.10 0.13 0.10 0.11 0.12 0.12 0.12 0.11 0.11 0.08 0.06 0.03 0.03 0.02 0.01 0.01 0.01 0.01 0.01
0.00 0.00 0.00 0.00 0.00 0.00 0.00 0.00 0.02 0.01 0.00 0.01 0.01 0.00 0.01 0.00 0.00 0.00 0.00 0.01 0.09 0.13 0.13 0.10 0.10 0.08 0.05 0.07 0.08 0.05 0.06 0.03 0.03 0.04 0.04 0.05 0.07 0.07 0.08 0.08 0.05 0.05 0.03 0.02 0.00 0.01 0.00 0.00 0.00 0.00 0.01 0.01 0.01 0.01
0.00 0.00 0.00 0.00 0.00 0.00 0.02 0.02 0.01 0.01 0.00 0.01 0.00 0.00 0.00 0.00 0.00 0.00 0.01 0.05 0.17 0.14 0.04 0.03 0.04 0.02 0.04 0.05 0.03 0.03 0.02 0.01 0.02 0.02 0.02 0.02 0.02 0.01 0.01 0.01 0.00 0.00 0.01 0.01 0.00 0.00 0.00 0.00 0.00 0.00 0.00 0.00 0.00 0.00
0.00 0.00 0.00 0.00 0.00 0.01 0.00 0.00 0.00 0.00 0.00 0.00 0.00 0.00 0.00 0.00 0.00 0.00 0.02 0.07 0.12 0.10 0.06 0.03 0.01 0.00 0.00 0.00 0.00 0.00 0.00 0.00 0.00 0.00 0.00 0.00 0.00 0.00 0.00 0.00 0.00 0.01 0.00 0.00 0.00 0.00 0.00 0.00 0.00 0.00 0.00 0.00 0.00 0.00
0.00 0.00 0.00 0.00 0.00 0.00 0.00 0.00 0.00 0.00 0.00 0.00 0.00 0.01 0.00 0.00 0.00 0.00 0.01 0.06 0.06 0.05 0.03 0.01 0.00 0.00 0.00 0.00 0.00 0.00 0.00 0.00 0.00 0.00 0.00 0.00 0.00 0.00 0.00 0.00 0.00 0.00 0.00 0.01 0.01 0.01 0.00 0.00 0.00 0.00 0.00 0.00 0.00 0.00
0.00 0.00 0.00 0.00 0.00 0.00 0.00 0.00 0.00 0.00 0.00 0.00 0.01 0.00 0.00 0.00 0.00 0.02 0.03 0.04 0.03 0.03 0.03 0.02 0.00 0.00 0.00 0.00 0.00 0.00 0.00 0.00 0.00 0.00 0.00 0.00 0.00 0.00 0.00 0.00 0.00 0.01 0.00 0.00 0.00 0.00 0.00 0.00 0.00 0.00 0.00 0.00 0.00 0.00
0.00 0.01 0.00 0.00 0.00 0.00 0.00 0.00 0.00 0.00 0.00 0.01 0.00 0.00 0.00 0.00 0.01 0.03 0.06 0.03 0.01 0.01 0.00 0.00 0.00 0.00 0.00 0.00 0.00 0.00 0.00 0.00 0.00 0.00 0.00 0.00 0.00 0.00 0.00 0.00 0.00 0.01 0.00 0.00 0.00 0.00 0.00 0.00 0.00 0.00 0.00 0.00 0.00 0.00
0.00 0.00 0.00 0.00 0.00 0.00 0.00 0.00 0.00 0.01 0.01 0.01 0.00 0.00 0.00 0.01 0.04 0.07 0.04 0.03 0.00 0.00 0.00 0.00 0.00 0.00 0.00 0.00 0.00 0.00 0.00 0.00 0.00 0.00 0.00 0.00 0.00 0.00 0.00 0.00 0.00 0.00 0.00 0.00 0.00 0.00 0.00 0.00 0.00 0.00 0.00 0.00 0.00 0.00
0.00 0.00 0.00 0.00 0.00 0.00 0.01 0.01 0.01 0.01 0.01 0.00 0.00 0.01 0.02 0.06 0.07 0.04 0.04 0.01 0.00 0.00 0.00 0.00 0.00 0.00 0.00 0.00 0.00 0.00 0.00 0.00 0.00 0.00 0.00 0.01 0.01 0.01 0.00 0.00 0.00 0.00 0.01 0.01 0.01 0.01 0.00 0.00 0.00 0.00 0.00 0.00 0.01 0.00
0.00 0.00 0.00 0.00 0.01 0.02 0.06 0.03 0.04 0.02 0.00 0.00 0.00 0.03 0.04 0.11 0.15 0.06 0.02 0.02 0.02 0.01 0.00 0.00 0.01 0.01 0.01 0.00 0.00 0.00 0.00 0.00 0.00 0.01 0.01 0.01 0.01 0.01 0.01 0.01 0.01 0.01 0.01 0.01 0.01 0.00 0.01 0.01 0.01 0.01 0.01 0.00 0.00 0.01
0.00 0.00 0.00 0.00 0.02 0.04 0.03 0.02 0.01 0.01 0.01 0.00 0.00 0.01 0.04 0.08 0.08 0.06 0.04 0.03 0.01 0.00 0.00 0.00 0.01 0.00 0.00 0.00 0.00 0.00 0.01 0.00 0.00 0.00 0.00 0.00 0.00 0.00 0.00 0.00 0.00 0.01 0.00 0.00 0.00 0.00 0.00 0.00 0.00 0.00 0.00 0.00 0.00 0.00
0.00 0.00 0.00 0.01 0.03 0.03 0.06 0.05 0.01 0.01 0.01 0.00 0.01 0.00 0.01 0.01 0.02 0.03 0.03 0.03 0.02 0.02 0.01 0.01 0.01 0.00 0.00 0.00 0.00 0.00 0.00 0.00 0.00 0.00 0.00 0.00 0.00 0.01 0.01 0.01 0.01 0.01 0.00 0.00 0.00 0.01 0.00 0.00 0.00 0.00 0.00 0.00 0.00 0.00
0.00 0.00 0.00 0.00 0.01 0.01 0.02 0.01 0.00 0.01 0.01 0.01 0.01 0.02 0.02 0.01 0.02 0.03 0.03 0.04 0.06 0.04 0.01 0.02 0.01 0.00 0.00 0.00 0.00 0.00 0.00 0.00 0.00 0.00 0.00 0.00 0.00 0.00 0.00 0.00 0.00 0.00 0.00 0.00 0.00 0.00 0.00 0.00 0.00 0.00 0.00 0.00 0.00 0.00